Погода в Корке

Ирландия     51°50′51″N   8°29′14″W
темп.,
°C
ветер,
м/с
пор.,
м/с
влажн.,
%
обл.,
%
осадки,
мм/ч
давл.,
гПа
погр.,
м
15 апреля, чт
чт1501:00+4в33925 0.0 103327
04:00+4в22915 0.0 103314
07:00+4в22915 0.0 103223
10:00+9вюв45775 0.0 1032784
13:00+11юв45685 0.0 10321203
16:00+11ююв55707 0.1 10321105
19:00+9ю4583100 0.3 1032699
22:00+5ююв479259 0.1 1032122
16 апреля, пт
пт1601:00+5ююв46855 0.1 103196
04:00+5ююв4782100 0.0 1030110
07:00+5ю3683100 0.0 1030106
10:00+8ю6766100 0.0 10311085
13:00+10ю7864100 0.0 10301278
16:00+10ю6766100 0.0 10291290
19:00+8ю577352 0.1 1029971
22:00+8ю6865100 0.0 1029739
17 апреля, сб
сб1701:00+8ю6966100 0.0 1028820
04:00+8ю71078100 0.1 1028703
07:00+7ю71178100 0.1 1027698
10:00+9ю81072100 0.0 10271043
13:00+9ю81073100 0.0 10261082
16:00+7ю71189100 0.7 1025912
19:00+7ююз71189100 2.0 1024765
22:00+8ю81290100 0.0 1024744
18 апреля, вс
вс1801:00+8ююз81393100 0.1 1022755
04:00+8ююз71295100 0.1 1021690
07:00+9ююз71296100 0.4 1021597
10:00+9ююз71196100 0.3 1021608
13:00+10ююз71195100 0.3 1021640
16:00+10ююз71191100 0.0 1020680
19:00+9ю71194100 0.1 1020666
22:00+9ю71195100 0.3 1020603
19 апреля, пн
пн1901:00+9ю71197100 1.0 1019634
04:00+9ю61198100 1.1 1017589
07:00+9ю71199100 1.8 1016575
10:00+9ю71198100 0.3 1015601
13:00+9ю71198100 2.0 1015552
16:00+9ю61198100 2.2 1014521
19:00+9ю3798100 3.1 1015379
22:00+9сз4797100 0.9 1016414